STARLINK-2225 (48574 NORAD) Tracking and Keplerian Element Data

This shows tracking and keplerian element data for the satellite.

Feedback or suggestion? Click here.




ElementValue
Catalog48574
NameSTARLINK-2225
Epoch Orbit1257
Epoch Day215.25002315
Epoch Year2021
RAAN102.4965
Inclination53.0541
Eccentricity0.000164
Argument of Perigee40.1512
Mean Anonmoly186.6945
Mean Motion15.42165806
Decay Rate4.017E-05
L11 48574U 21041X 21215.25002315 .00004017 00000-0 10169-3 0 9997
L22 48574 53.0541 102.4965 0001640 40.1512 186.6945 15.42165806 12571

Live tracking and technical data element details for STARLINK-2225 (NORAD 48574). STARLINK-2225 can be tracked NOW for your location showing map with azimuth and elevation plus other details from your city location.

Track the satellite on the map from your city or location and see movement details for azimuth, elevation, latitude, longitude, range, height, and movement on the map or in text.







IsCatalogInMostPopularTable: catalog: 48574, numindb: 18
Update: records affected: 1



GetName: 48574 STARLINK-2225

Hit Count: updated at: Tue, 03 Aug 2021 20:44:31 GMT